Weather Roundup
Issued by NWS Corpus Christi, TX

Home | Current Version | Previous Version | Text Only | Print | Product List | Glossary On
Versions: 1 2 3 4 5 6 7 8 9 10 11 12 13 14 15 16 17 18 19 20 21 22 23 24 25 26 27 28 29 30 31 32 33 34 35 36 37 38 39 40 41 42 43 44 45 46 47 48 49 50
000
ASUS44 KCRP 291010
HRRCRP

SOUTH TEXAS REGIONAL WEATHER ROUNDUP
NATIONAL WEATHER SERVICE CORPUS CHRISTI TX
500 AM CDT WED JUL 29 2015


TXZ229>244-291100-
...CORPUS CHRISTI AREA OBSERVATIONS...

CITY           SKY/WX    TMP DP  RH WIND       PRES   REMARKS
CORPUS CHRISTI PTCLDY    81  77  88 S10       29.95S
NAS CORPUS CHR PTCLDY    81  78  91 S9        29.95S
ROCKPORT       MOCLDY    83  78  85 S6        29.95S HX  93
KINGSVILLE NAS CLEAR     78  78 100 SE5       29.95S
ALICE          CLOUDY    78  76  93 SE5       29.95S
FALFURRIAS     CLOUDY    79  76  92 E6        29.94S
$$

...VICTORIA AREA OBSERVATIONS...

CITY           SKY/WX    TMP DP  RH WIND       PRES   REMARKS
VICTORIA       PTCLDY    75  75 100 E5        29.98S FOG
BEEVILLE       CLOUDY    74  73  99 S9        29.97R
PLEASANTON     MOCLDY    76  73  93 CALM      29.99R
SAN ANTONIO    MOCLDY    78  73  84 S8        30.02R
$$

...LAREDO AREA OBSERVATIONS...

CITY           SKY/WX    TMP DP  RH WIND       PRES   REMARKS
LAREDO         CLEAR     80  74  82 SE8       29.95R
COTULLA        CLEAR     78  73  84 E6        29.96R
DEL RIO        CLEAR     81  71  71 E10       29.94R
MCALLEN        CLOUDY    84  78  82 SE10      29.94S HX  95
HEBBRONVILLE     N/A     77  75  93 SE7       29.96S FOG
$$

...OTHER TEXAS OBSERVATIONS...

CITY           SKY/WX    TMP DP  RH WIND       PRES   REMARKS
BROWNSVILLE    CLOUDY   N/A N/A N/A SE5       29.95S
HOUSTON        PTCLDY    77  76  96 CALM      29.99S
COL. STATION   CLEAR     76  74  93 S5        29.99F
AUSTIN         PTCLDY    72  72 100 S3        29.99S
WACO           CLEAR     78  72  81 S10       30.00S
FORT WORTH     CLEAR     83  68  60 S14       29.98R
WICHITA FALLS  CLEAR     74  67  78 S7        29.98R
LUBBOCK        PTCLDY    69  62  78 NE3       30.09S
EL PASO        CLOUDY    74  62  66 CALM      30.14R
$$

...MARINE OBSERVATIONS...

STATION/POSITION TIME  SKY/WX   TEMP    WIND        PRES    VSBY  WAVE   SWELL
                                AIR SEA DIR/SP/G                  HT/PER HT/PER
                 (UTC)          (F)     (DEG/KT/KT) (MB)    (MI)  (FT/S) (FT/S)
PORT ARANSAS     1000            81 83  160/ 10/ 12 1014.7F
BUOY 90 E PORT A 0950            85 86  210/ 12/ 14 1014.7S         3/ 5   2/ 8
BUOY 45 SE BAFFI 0950            83 83  170/ 14/ 16 1013.9F         3/ 5
BUOY 200 E PT IS 0950            85 86  190/  8/ 10 1015.1F         2/ 5   2/ 5
BUOY 15 E GALVES 0950            85 86  230/  6/  6 1015.2S         2/ 6   2/ 6
$$


USA.gov is the U.S. government's official web portal to all federal, state and local government web resources and services.